Regional Weather Roundup
Issued by NWS Charleston, SC

Current Version | Previous Version | Graphics & Text | Print | Product List | Glossary On
Versions: 1 2 3 4 5 6 7 8 9 10 11 12 13 14 15 16 17 18 19 20 21 22 23 24 25 26 27 28 29 30 31 32 33 34 35 36 37 38 39 40 41 42 43 44 45 46 47 48 49 50
791
ASUS42 KCHS 201027
RWRCHS

Regional Weather Roundup
National Weather Service Charleston SC
500 AM EST SAT JAN 20 2018

NOTE: "fair" indicates few or no clouds below 12,000 feet with no
significant weather and/or obstructions to visibility.

Not all stations are quality controlled. Use data with caution,
especially dewpoint observations.

SCZ027-030-031-034>040-042>050-201100-
...Southeast South Carolina...

CITY           SKY/WX    TMP DP  RH WIND       PRES   REMARKS
N Charleston   FAIR      34  25  69 SW3       30.24S
Waterfront Prk NOT AVBL
Mount Pleasant FAIR      34  30  86 SW3       30.25S
Johns Island   FAIR      37  25  60 W3        30.25R
Pinopolis        N/A     37  25  60 SW6       30.16S WCI  33
Moncks Corner  FAIR      27  23  86 CALM      30.24S
Summerville    FAIR      28  27  93 S3        30.26R
Beaufort MCAS  FAIR      32  26  78 CALM      30.26S
Beaufort Arpt  FAIR      36  28  75 SW5       30.26R WCI  32
Hilton Head Is FAIR      39  21  48 W5        30.27S WCI  36
Walterboro     FAIR      28  25  86 CALM      30.26S
Allendale      FAIR      28  23  80 CALM      30.23F

...Southern Midlands and Pee Dee...

CITY           SKY/WX    TMP DP  RH WIND       PRES   REMARKS
Georgetown     FAIR      30  27  86 SW5       30.24S WCI  25
Kingstree      FAIR      27  21  80 CALM      30.22S
Orangeburg     FAIR      27  20  75 S3        30.22S
Barnwell         N/A     27  23  86 CALM      30.24R
Aiken          FAIR      30  16  55 SW7       30.25S WCI  23
Manning        FAIR      28  21  74 MISG      30.22S
Columbia       FAIR      26  20  77 W6        30.21S WCI  19
Sumter         FAIR      37  14  38 CALM      30.18S
Florence       FAIR      29  18  63 SW5       30.20S WCI  24
Myrtle Beach   FAIR      37  23  56 SW6       30.23S WCI  32
N Myrtle Beach FAIR      35  25  66 SW3       30.21R

$$

GAZ063-065-086>088-099>101-113>116-118-119-134>141-150-201100-
...Southeast Georgia...

CITY           SKY/WX    TMP DP  RH WIND       PRES   REMARKS
Savannah Arpt  FAIR      31  25  78 W3        30.28R
Hunter AAF     FAIR      32  25  74 W6        30.25R WCI  26
Fort Stewart   FAIR      31  26  83 CALM      30.26R
Statesboro     FAIR      30  23  75 CALM      30.26S
Sylvania       FAIR      31  27  83 CALM      30.26S
Claxton        FAIR      29  27  91 CALM      30.28S

...CSRA, Central and far Southeast Georgia...

CITY           SKY/WX    TMP DP  RH WIND       PRES   REMARKS
Thomson        FAIR      25  18  76 CALM      30.29S
Augusta-Bush   FAIR      24  19  81 CALM      30.24S
Augusta-Daniel FAIR      43  10  26 W5        30.23F
Swainsboro     FAIR      30  25  80 CALM      30.27S
Vidalia        FAIR      32  28  86 CALM      30.27S
Eastman        FAIR      28  21  76 CALM      30.30S
Hazlehurst     FAIR      33  24  69 CALM      30.27R
Alma           FAIR      30  27  88 CALM      30.27F
Waycross       FAIR      30  27  88 CALM      30.28S
Jesup          FAIR      28  27  93 CALM      30.28S
Baxley         FAIR      28  28 100 CALM      30.27S
Brunswick      FAIR      32  30  93 CALM      30.29R
Saint Simons   FAIR      36  34  92 CALM      30.28S

$$

SCZ027-028-034-036>038-045-046-048>050-GAZ119-141-201100-
...Lake and Supplemental Coastal Observations...

STATION/POSITION TIME  TEMP    WIND        PRES    WAVE   SWELL
                       AIR SEA DIR/SP/G            HT/PER HT/PER/DIR
                 (UTC) (F)     (DEG/KT/KT) (MB)    (FT/S) (FT/S/D)
Winyah Bay       0945   39     270/  3     1024.0S
Lake Murray      1020   44     260/  8/ 12 1022.0
ACE Basin NERRS  0945   33        CALM     1024.0S
Fort Pulaski     1000   40 45  230/  5/  6 1025.2
Sapelo Island    1000   33        CALM     1025.0

$$

ANZ835-935-AMZ111-154-330-350-352-354-370-450-454-472-201100-
...C-MAN and Buoy Observations...

STATION/POSITION TIME  TEMP    WIND        PRES    WAVE   SWELL
                       AIR SEA DIR/SP/G            HT/PER HT/PER/DIR
                 (UTC) (F)     (DEG/KT/KT) (MB)    (FT/S) (FT/S/D)
Buoy 41004       1010   58 69  270/ 16/ 19 1024.0
Buoy 41008       0950   48 51  270/  8/  8 1025.1S   2/11   2/ 60/11
Folly Beach CMAN 1000   41     250/  6/  8 1024.7R
Capers Nearshore 1008   42 47  280/  8/ 12 1023.8F
Fripp Nearshore  1008   42 44  260/  6/  8 1023.8F


STATION/POSITION TIME  TEMP    WIND        PRES    WAVE   SWELL
                       AIR SEA DIR/SP/G            HT/PER HT/PER/DIR
                 (UTC) (F)     (DEG/KT/KT) (MB)    (FT/S) (FT/S/D)
5E St. Marys GA  1000      48                N/A     1/11   2/100/11
Frying Pan Buoy  1010   55 60  260/ 14/ 17 1023.1
Buoy 41025       1010   58 71  260/ 19/ 23 1021.4
Cape Lookout NC  1000          240/  7/  9 1022.0R
Buoy 41002       0950   64 70  250/ 12/ 16 1023.5F   4/ 8   3/ 40/ 8
Buoy 41010       NOT AVBL
St Augustine FL  1000   44 50  250/  8/  8 1025.1F


$$




USA.gov is the U.S. government's official web portal to all federal, state and local government web resources and services.